Newark, NJ

8:27 AM EST on February 24, 2017 (GMT -0500)
Newark International

Weather History for KEWR - October, 2012

Change the Weather History Date:

Thursday, October 25, 2012

  Actual Average Record
Temperature  
Mean Temperature 60 °F 54 °F  
Max Temperature 63 °F 62 °F 79 °F (1963)
Min Temperature 57 °F 45 °F 33 °F (1939)
Degree Days  
Heating Degree Days 5 12  
Month to date heating degree days 160 201  
Since 1 July heating degree days 180 246  
Cooling Degree Days 0 0  
Month to date cooling degree days 19 14  
Year to date cooling degree days 1450 1188  
Growing Degree Days 10 (Base 50)    
Moisture  
Dew Point 52 °F    
Average Humidity 74    
Maximum Humidity 80    
Minimum Humidity 67    
Precipitation  
Precipitation 0.00 in 0.12 in 1.66 in (1980)
Month to date precipitation 2.32 2.92  
Year to date precipitation 28.34 38.11  
Snow  
Snow 0.00 in 0.00 in T in (1960)
Month to date snowfall 0.0 0.0  
Since 1 July snowfall 0.0 0.0  
Snow Depth 0.00 in    
Sea Level Pressure  
Sea Level Pressure 30.24 in    
Wind  
Wind Speed 4 mph (East)    
Max Wind Speed 8 mph    
Max Gust Speed 12 mph    
Visibility 10 miles    
Events      
T = Trace of Precipitation, MM = Missing Value Source: NWS Daily Summary

Daily Weather History Graph

Daily Weather History Graph

Search for Another Location

Airport or City:

Trip Planner

Search our weather history database for the weather conditions in past years. The results will help you decide how hot, cold, wet, or windy it might be!

Date:

Astronomy

Oct. 25, 2012 Rise Set
Actual Time 7:19 AM EDT 6:01 PM EDT
Civil Twilight 6:51 AM EDT 6:29 PM EDT
Nautical Twilight 6:19 AM EDT 7:01 PM EDT
Astronomical Twilight 5:47 AM EDT 7:33 PM EDT
Moon 3:47 PM EDT (10/25) 3:12 AM EDT (10/25)
Length of Visible Light 11h 37m
Length of Day
10h 41m
Waxing Gibbous, 84% of the Moon is Illuminated
Oct 25
Waxing Gibbous
Oct 29
Full
Nov 6
Last Quarter
Nov 13
New
Nov 20
First Quarter

Hourly Weather History & Observations

Time (EDT) Temp. Dew Point Humidity Pressure Visibility Wind Dir Wind Speed Gust Speed Precip Events Conditions
12:51 AM 59.0 °F 53.1 °F 81% 30.20 in 10.0 mi ESE 3.5 mph - N/A   Overcast
1:51 AM 59.0 °F 53.1 °F 81% 30.21 in 10.0 mi East 3.5 mph - N/A   Overcast
2:51 AM 59.0 °F 52.0 °F 78% 30.21 in 10.0 mi East 4.6 mph - N/A   Overcast
3:51 AM 57.9 °F 52.0 °F 81% 30.20 in 10.0 mi ESE 3.5 mph - N/A   Overcast
4:51 AM 57.9 °F 52.0 °F 81% 30.20 in 10.0 mi ENE 4.6 mph - N/A   Overcast
5:51 AM 57.0 °F 52.0 °F 83% 30.22 in 10.0 mi NNE 4.6 mph - N/A   Overcast
6:51 AM 57.9 °F 52.0 °F 81% 30.24 in 10.0 mi East 4.6 mph - N/A   Overcast
7:51 AM 57.2 °F 51.8 °F 82% 30.25 in 10.0 mi East 4.6 mph - N/A   Overcast
8:51 AM 59.0 °F 51.1 °F 75% 30.26 in 10.0 mi East 4.6 mph - N/A   Overcast
9:51 AM 59.0 °F 51.1 °F 75% 30.27 in 10.0 mi East 5.8 mph - N/A   Overcast
10:51 AM 61.0 °F 52.0 °F 72% 30.27 in 10.0 mi ENE 4.6 mph - N/A   Overcast
11:51 AM 62.1 °F 53.1 °F 72% 30.27 in 10.0 mi ENE 5.8 mph - N/A   Overcast
12:51 PM 62.1 °F 53.1 °F 72% 30.26 in 10.0 mi East 4.6 mph - N/A   Overcast
1:51 PM 62.6 °F 53.6 °F 72% 30.25 in 10.0 mi East 5.8 mph - N/A   Overcast
2:51 PM 63.0 °F 53.1 °F 70% 30.24 in 10.0 mi ESE 6.9 mph - N/A   Overcast
3:51 PM 63.0 °F 53.1 °F 70% 30.24 in 10.0 mi SE 4.6 mph - N/A   Overcast
4:51 PM 62.1 °F 54.0 °F 75% 30.24 in 10.0 mi SE 4.6 mph - N/A   Overcast
5:51 PM 62.1 °F 53.1 °F 72% 30.25 in 10.0 mi SE 5.8 mph - N/A   Overcast
6:51 PM 62.1 °F 52.0 °F 70% 30.25 in 10.0 mi ESE 4.6 mph - N/A   Overcast
7:51 PM 61.0 °F 52.0 °F 72% 30.26 in 10.0 mi ESE 6.9 mph - N/A   Overcast
8:51 PM 60.8 °F 51.8 °F 72% 30.25 in 10.0 mi ESE 5.8 mph - N/A   Overcast
9:51 PM 61.0 °F 51.1 °F 70% 30.25 in 10.0 mi SE 4.6 mph - N/A   Overcast
10:51 PM 61.0 °F 51.1 °F 70% 30.24 in 10.0 mi Calm Calm - N/A   Overcast
11:51 PM 60.8 °F 53.6 °F 77% 30.23 in 10.0 mi Calm Calm - N/A   Overcast